Quincy, IL

5:28 AM CST on December 13, 2019 (GMT -0600)
Quincy Regional-Baldwin

Weather History for KUIN - November, 2019

Change the Weather History Date:

Saturday, November 16, 2019

  Actual Average Record
Temperature  
Mean Temperature 38 °F 42 °F  
Max Temperature 47 °F 51 °F 77 °F (1952)
Min Temperature 28 °F 34 °F 4 °F (1959)
Degree Days  
Heating Degree Days 28 23  
Month to date heating degree days 476 306  
Since 1 July heating degree days 897 730  
Cooling Degree Days 0 0  
Month to date cooling degree days 0 0  
Year to date cooling degree days 1346 1093  
Moisture  
Dew Point 29 °F    
Average Humidity 76    
Maximum Humidity 88    
Minimum Humidity 60    
Precipitation  
Precipitation 0.00 in 0.09 in 1.97 in (2009)
Month to date precipitation 0.00 1.64  
Year to date precipitation 39.39 33.70  
Sea Level Pressure  
Sea Level Pressure 30.27 in    
Wind  
Wind Speed 7 mph ()    
Max Wind Speed 14 mph    
Max Gust Speed 19 mph    
Visibility 6.8 miles    
Events      
T = Trace of Precipitation, MM = Missing Value Source: Averaged Metar Reports

Daily Weather History Graph

Daily Weather History Graph

Search for Another Location

Airport or City:

Astronomy

Nov. 16, 2019 Rise Set
Actual Time 6:50 AM CST 4:47 PM CST
Civil Twilight 6:21 AM CST 5:16 PM CST
Nautical Twilight 5:48 AM CST 5:49 PM CST
Astronomical Twilight 5:16 AM CST 6:21 PM CST
Moon 8:21 PM CST (11/16) 10:44 AM CST (11/16)
Length of Visible Light 10h 55m
Length of Day
9h 57m
Waning Gibbous, 82% of the Moon is Illuminated
Nov 16
Waning Gibbous
Nov 19
Last Quarter
Nov 26
New
Dec 4
First Quarter
Dec 11
Full

Hourly Weather History & Observations

Time (CST) Temp. Windchill Dew Point Humidity Pressure Visibility Wind Dir Wind Speed Gust Speed Precip Events Conditions
12:54 AM 28.9 °F - 23.0 °F 78% 30.36 in 10.0 mi North - - N/A   Clear
1:54 AM 35.1 °F 29.3 °F 25.0 °F 67% 30.35 in 10.0 mi East 6.9 mph - N/A   Clear
2:54 AM 30.9 °F 23.5 °F 25.0 °F 79% 30.35 in 10.0 mi East 8.1 mph - N/A   Clear
3:54 AM 28.9 °F 21.1 °F 24.1 °F 82% 30.36 in 9.0 mi East 8.1 mph - N/A   Clear
4:54 AM 30.0 °F 21.7 °F 25.0 °F 82% 30.37 in 8.0 mi ESE 9.2 mph - N/A   Clear
5:54 AM 28.9 °F 21.1 °F 25.0 °F 85% 30.37 in 6.0 mi ESE 8.1 mph - N/A   Clear
6:54 AM 28.9 °F 21.1 °F 25.0 °F 85% 30.37 in 4.0 mi ESE 8.1 mph - N/A   Clear
7:54 AM 30.0 °F 21.7 °F 27.0 °F 88% 30.36 in 4.0 mi SE 9.2 mph - N/A   Clear
8:54 AM 35.1 °F 28.6 °F 30.0 °F 82% 30.36 in 5.0 mi SE 8.1 mph - N/A   Haze
9:54 AM 37.9 °F 30.5 °F 30.9 °F 76% 30.35 in 6.0 mi SE 11.5 mph - N/A   Haze
10:54 AM 39.9 °F 33.9 °F 30.9 °F 70% 30.33 in 7.0 mi SSE 9.2 mph - N/A   Clear
11:54 AM 42.1 °F 37.1 °F 32.0 °F 67% 30.30 in 7.0 mi SE 8.1 mph - N/A   Clear
12:54 PM 44.1 °F 40.8 °F 33.1 °F 65% 30.26 in 8.0 mi SE 5.8 mph - N/A   Clear
1:54 PM 46.0 °F 42.5 °F 33.1 °F 61% 30.23 in 8.0 mi SE 6.9 mph - N/A   Clear
2:54 PM 46.0 °F 41.0 °F 33.1 °F 61% 30.22 in 8.0 mi SE 10.4 mph - N/A   Clear
3:54 PM 44.1 °F 39.0 °F 32.0 °F 63% 30.20 in 7.0 mi ESE 9.2 mph - N/A   Clear
4:54 PM 39.9 °F 34.5 °F 30.9 °F 70% 30.19 in 6.0 mi ESE 8.1 mph - N/A   Haze
5:54 PM 37.9 °F 31.5 °F 30.0 °F 73% 30.17 in 7.0 mi ESE 9.2 mph - N/A   Clear
6:54 PM 37.0 °F 30.4 °F 30.0 °F 76% 30.18 in 6.0 mi ESE 9.2 mph - N/A   Haze
7:54 PM 35.1 °F 27.9 °F 30.0 °F 82% 30.17 in 5.0 mi SE 9.2 mph - N/A   Haze
8:54 PM 34.0 °F 26.6 °F 28.9 °F 82% 30.17 in 6.0 mi ESE 9.2 mph - N/A   Haze
9:54 PM 34.0 °F 27.2 °F 28.9 °F 82% 30.16 in 6.0 mi SE 8.1 mph - N/A   Haze
10:54 PM 34.0 °F 26.6 °F 28.9 °F 82% 30.15 in 6.0 mi ESE 9.2 mph - N/A   Haze
11:54 PM 33.1 °F 26.9 °F 28.9 °F 85% 30.14 in 5.0 mi SSE 6.9 mph - N/A   Clear